Weather History for Lone Rock, WI

Change the Weather History Date:

Sunday, February 16, 2014

  Actual Average Record
Temperature  
Mean Temperature 16 °F -  
Max Temperature 23 °F 32 °F 50 °F (1998)
Min Temperature 10 °F 17 °F -13 °F (2007)
Degree Days  
Heating Degree Days 48    
Moisture  
Dew Point 10 °F    
Average Humidity 73    
Maximum Humidity 88    
Minimum Humidity 58    
Precipitation  
Precipitation 0.00 in - - ()
Sea Level Pressure  
Sea Level Pressure 30.17 in    
Wind  
Wind Speed 8 mph (ENE)    
Max Wind Speed 14 mph    
Max Gust Speed -    
Visibility 9 miles    
Events      
Averages and records for this station are not official NWS values.
T = Trace of Precipitation, MM = Missing Value Source: NWS Daily Summary

Daily Weather History Graph

Daily Weather History Graph

Search for Another Location

Airport:

Trip Planner

Search our weather history database for the weather conditions in past years. The results will help you decide how hot, cold, wet, or windy it might be!

Date:

Astronomy

Feb. 16, 2014 Rise Set
Actual Time 6:57 AM CST 5:33 PM CST
Civil Twilight 6:27 AM CST 6:02 PM CST
Nautical Twilight 5:54 AM CST 6:35 PM CST
Astronomical Twilight 5:21 AM CST 7:08 PM CST
Moon 7:34 PM CST (2/16) 7:23 AM CST (2/16)
Length of Visible Light 11h 34m
Length of Day
10h 36m
Full, 97% of the Moon is Illuminated
Feb 16
Full
Feb 22
Last Quarter
Mar 1
New
Mar 8
First Quarter
Mar 16
Full

Hourly Weather History & Observations

Time (CST) Temp. Windchill Dew Point Humidity Pressure Visibility Wind Dir Wind Speed Gust Speed Precip Events Conditions
12:56 AM 16.0 °F 7.4 °F 12.9 °F 88% 29.99 in 7.0 mi West 5.8 mph - N/A   Overcast
1:56 AM 17.1 °F 6.6 °F 12.9 °F 84% 30.00 in 6.0 mi NNW 8.1 mph - N/A   Overcast
2:09 AM 16.0 °F 5.3 °F 12.0 °F 84% 29.99 in 5.0 mi NW 8.1 mph - N/A   Mostly Cloudy
2:56 AM 15.1 °F 3.3 °F 10.0 °F 80% 30.01 in 7.0 mi NW 9.2 mph - N/A   Scattered Clouds
3:56 AM 10.9 °F 2.9 °F 8.1 °F 88% 30.02 in 8.0 mi West 4.6 mph - N/A   Mostly Cloudy
4:56 AM 17.1 °F 5.0 °F 10.9 °F 77% 30.06 in 10.0 mi NW 10.4 mph - N/A   Overcast
5:56 AM 17.1 °F 5.0 °F 10.9 °F 77% 30.11 in 10.0 mi NW 10.4 mph - N/A   Overcast
6:56 AM 15.1 °F 2.5 °F 10.0 °F 80% 30.12 in 10.0 mi North 10.4 mph - N/A   Clear
7:56 AM 14.0 °F 2.0 °F 9.0 °F 80% 30.17 in 10.0 mi NNW 9.2 mph - N/A   Clear
8:56 AM 17.1 °F 6.6 °F 10.0 °F 74% 30.20 in 10.0 mi NNW 8.1 mph - N/A   Clear
9:56 AM 19.9 °F 11.1 °F 10.9 °F 68% 30.23 in 10.0 mi North 6.9 mph - N/A   Clear
10:56 AM 21.0 °F 12.4 °F 12.0 °F 68% 30.25 in 10.0 mi NE 6.9 mph - N/A   Clear
11:56 AM 19.9 °F 12.1 °F 10.9 °F 68% 30.24 in 10.0 mi SE 5.8 mph - N/A   Clear
12:56 PM 21.0 °F 14.6 °F 10.9 °F 65% 30.22 in 10.0 mi ESE 4.6 mph - N/A   Clear
1:56 PM 21.9 °F 17.2 °F 10.9 °F 63% 30.22 in 10.0 mi SE 3.5 mph - N/A   Clear
2:56 PM 23.0 °F 15.8 °F 10.9 °F 60% 30.21 in 10.0 mi SE 5.8 mph - N/A   Clear
3:56 PM 21.9 °F 13.4 °F 9.0 °F 58% 30.22 in 10.0 mi East 6.9 mph - N/A   Clear
4:56 PM 19.9 °F 9.3 °F 8.1 °F 60% 30.24 in 10.0 mi ESE 9.2 mph - N/A   Clear
5:56 PM 15.1 °F 2.5 °F 7.0 °F 70% 30.26 in 10.0 mi East 10.4 mph - N/A   Clear
6:56 PM 16.0 °F 2.3 °F 8.1 °F 71% 30.26 in 10.0 mi East 12.7 mph - N/A   Clear
7:56 PM 16.0 °F 3.6 °F 8.1 °F 71% 30.27 in 10.0 mi East 10.4 mph - N/A   Clear
8:56 PM 16.0 °F 2.9 °F 9.0 °F 74% 30.26 in 10.0 mi East 11.5 mph - N/A   Clear
9:56 PM 16.0 °F 2.3 °F 8.1 °F 71% 30.24 in 10.0 mi East 12.7 mph - N/A   Mostly Cloudy
10:56 PM 16.0 °F 1.7 °F 9.0 °F 74% 30.23 in 10.0 mi East 13.8 mph - N/A   Overcast
11:56 PM 17.1 °F 4.3 °F 10.0 °F 74% 30.22 in 10.0 mi East 11.5 mph - N/A   Overcast